PRIMDA Weather Reports


time (UTC)temp
F
wind
direction
speed
knots
gust
knots
rain 1hr
in
rain 24hr
in
rain mn
in
humidity
%
barometer
mb
20260507091606 48 260 7.8 0.0 0.00 0.00 0.00 93
20260507081606 48 260 10.4 19.1 0.00 0.00 0.00 87
20260507071607 46 260 12.2 0.0 0.00 0.00 0.00 93
20260507061606 45 260 10.4 0.0 0.00 0.00 0.00 99
20260507051605 46 250 10.4 0.0 0.00 0.00 0.00 93
20260507041808 46 250 10.4 0.0 0.00 0.00 0.00 93
20260507031610 46 250 7.8 0.0 0.00 0.00 0.00 99
20260507021605 46 270 7.8 0.0 0.00 0.00 0.00 99
20260507011706 48 270 12.2 20.9 0.00 0.00 0.00 93
20260507001606 48 250 6.1 0.0 0.00 0.00 0.00 93
20260506231606 48 260 10.4 0.0 0.00 0.00 0.00 93
20260506221806 48 280 6.1 0.0 0.00 0.00 0.00 93
20260506211606 48 280 7.8 0.0 0.00 0.00 0.00 93
20260506201606 50 230 4.3 0.0 0.00 0.00 0.00 93
20260506191612 52 340 6.1 0.0 0.00 0.00 0.00 81
20260506181606 55 150 1.7 0.0 0.00 0.00 0.00 71
20260506171606 57 80 6.1 0.0 0.00 0.00 0.00 67
20260506161806 61 20 4.3 0.0 0.00 0.00 0.00 59
20260506151606 61 360 4.3 0.0 0.00 0.00 0.00 59
20260506141607 61 70 1.7 0.0 0.00 0.00 0.00 59
20260506131607 63 50 1.7 0.0 0.00 0.00 0.00 51
20260506121607 61 250 4.3 0.0 0.00 0.00 0.00 55
20260506111606 59 240 4.3 0.0 0.00 0.00 0.00 58
20260506101807 57 270 7.8 0.0 0.00 0.00 0.00 67